Regional Weather Roundup
Issued by NWS Upton, NY

Current Version | Previous Version | Graphics & Text | Print | Product List | Glossary Off
Versions: 1 2 3 4 5 6 7 8 9 10 11 12 13 14 15 16 17 18 19 20 21 22 23 24 25 26 27

000
ASUS41 KOKX 191405
RWROKX

REGIONAL WEATHER ROUNDUP
NATIONAL WEATHER SERVICE NEW YORK NY
1000 AM EDT SAT APR 19 2014

NOTE: "FAIR" INDICATES FEW OR NO CLOUDS BELOW 12,000 FEET WITH NO
SIGNIFICANT WEATHER AND/OR OBSTRUCTIONS TO VISIBILITY.

NYZ071-072-176-178-NJZ106-104-191500-
NEW YORK CITY METRO AREA


CITY           SKY/WX    TMP DP  RH WIND       PRES   REMARKS
CENTRAL PARK   SUNNY     55  32  41 VRB3      30.29S
LAGUARDIA APRT PTSUNNY   54  33  45 N7        30.26S
KENNEDY INTL   PTSUNNY   56  35  45 N13       30.27S
NEWARK/LIBERTY PTSUNNY   57  31  37 N10G23    30.27S
TETERBORO      SUNNY     58  30  34 N16       30.26S
$$

NYZ177-179-078>081-191500-
LONG ISLAND NEW YORK

CITY           SKY/WX    TMP DP  RH WIND       PRES   REMARKS
FARMINGDALE    SUNNY     55  36  48 N9        30.26R
ISLIP          PTSUNNY   54  35  48 N14       30.24S
SHIRLEY        SUNNY     54  36  50 NW8       30.26S
WESTHAMPTON    SUNNY     54  35  48 N12       30.26S
MONTAUK POINT    N/A     48  39  71 W9        30.25R
$$

NYZ052-065-067-191500-
HUDSON VALLEY

CITY           SKY/WX    TMP DP  RH WIND       PRES   REMARKS
WHITE PLAINS   SUNNY     54  33  45 NW15      30.25S
NEWBURGH       SUNNY     54  34  47 W10       30.29R
MONTGOMERY     SUNNY     54  32  43 W14       30.28R
POUGHKEEPSIE   SUNNY     55  35  47 NW3       30.27S
ALBANY         MOSUNNY   50  33  52 NW10      30.29R
$$

NJZ001-105-106-008-010-013-015-019>022-104-191500-
NEW JERSEY

CITY           SKY/WX    TMP DP  RH WIND       PRES   REMARKS
NEWARK/LIBERTY PTSUNNY   57  31  37 N10G23    30.27S
TETERBORO      SUNNY     58  30  34 N16       30.26S
CALDWELL       SUNNY     55  30  38 NE7       30.28S
MORRISTOWN     NOT AVBL
SOMERVILLE     SUNNY     56  29  35 N15       30.27R
LINDEN         FAIR      57  33  39 N13       30.29S
SUSSEX         SUNNY     55  32  41 NW9G20    30.29R
ANDOVER          N/A     53  30  41 NE7       30.29S
TRENTON        MOSUNNY   55  34  45 N14       30.28R
MILLVILLE      CLOUDY    52  40  63 VRB5      30.30R
ATLANTIC CITY  CLOUDY    50  40  68 NW6       30.30R
WRIGHTSTOWN    PTSUNNY   53  39  57 N9        30.28R
TOMS RIVER     PTSUNNY   27 N/A N/A N7        30.29R WCI  19
BELMAR         PTSUNNY   54  36  50 NW12      30.27S
$$

PAZ047>061-062-071-191500-
EASTERN PENNSYLVANIA

CITY           SKY/WX    TMP DP  RH WIND       PRES   REMARKS
PHILADELPHIA   PTSUNNY   56  36  47 N8        30.31R
ALLENTOWN      SUNNY     55  36  48 N7        30.30R
SCRANTON       MOSUNNY   49  30  48 NW13      30.32S
$$

CTZ002-004>006-009-010-012-RIZ004-006-007-MAZ004-011-015-191500-
SOUTHERN NEW ENGLAND
 IN CT

CITY           SKY/WX    TMP DP  RH WIND       PRES   REMARKS
BRADLEY INTL   MOSUNNY   54  29  38 N10G18    30.25R
HARTFORD       SUNNY     51  35  54 E6        30.25R
DANBURY        SUNNY     53  30  41 NW16G23   30.27R
WTRBRY/OXFORD  MOSUNNY   52  32  46 N12G23    30.27R
BRIDGEPORT     NOT AVBL
MERIDEN        SUNNY     56  30  37 NW8       30.24S
NEW HAVEN      MOSUNNY   51  41  68 S6        30.25S
CHESTER        FAIR      54  32  43 N9        30.24S
GROTON         SUNNY     54  36  50 NW9G20    30.23R
WILLIMANTIC    SUNNY     53  30  41 N10G21    30.23S

 IN RI

CITY           SKY/WX    TMP DP  RH WIND       PRES   REMARKS
PROVIDENCE     MOSUNNY   54  31  41 NW12G22   30.21R
BLOCK ISLAND   SUNNY     46  37  71 W16       30.22S
WESTERLY       SUNNY     53  34  48 NW12G22   30.23S

 IN MA

CITY           SKY/WX    TMP DP  RH WIND       PRES   REMARKS
BOSTON         SUNNY     54  33  45 NW16G23   30.19R
WORCESTER      SUNNY     48  32  53 NW16G22   30.20R
WESTFIELD      SUNNY     53  31  42 NW10      30.25R
PROVINCETOWN   SUNNY     46  37  71 MISG      30.19R
NANTUCKET      SUNNY     49  38  65 W16       30.19S
$$

ANZ330-335-338-340-345-350-353-355-191500-
COASTAL MARINE OBSERVATIONS


STATION/POSITION TIME  SKY/WX   TEMP    WIND        PRES    VSBY  WAVE
                                AIR SEA DIR/SP/G                  HT/PER
                 (UTC)          (F)     (DEG/KT/KT) (MB)    (MI)  (FT/S)
NY HARB ENTRANCE 1400            44 43  150/  8/ 10 1024.8
4S FIRE IS       1300               44                N/A           4/11
23SW MTP         1400            42 42  270/ 10/ 14 1024.1          5/11
HUDSON CANYON    1300            44 44  290/  8/ 10 1024.8          5/11
EXECUTION ROCKS  1400            50 42  140/  4/  4   N/A
WESTERN LI SOUND 1400            44     210/  6/  6   N/A           0
CENTRAL LI SOUND 1300            42 42  260/  8/  8   N/A           1
EASTERN LI SOUND NOT AVBL
ROBBINS REEF     1400            53     330/ 16/ 22   N/A
$$


>>>>>>>>>>>>>>>>>>>>>>>>>>>> KEY <<<<<<<<<<<<<<<<<<<<<<<<<<<
>                                                          <
>     SKY/WX - SKY CONDITION/PRESENT WEATHER               <
>     TMP    - TEMPERATURE IN FAHRENHEIT                   <
>     DP     - DEWPOINT IN FAHRENHEIT                      <
>     RH     - RELATIVE HUMIDITY IN PERCENT                <
>     WIND   - DIRECTION AND SPEED IN MPH                  <
>     PRES   - MEAN SEA LEVEL PRESSURE IN INCHES OF HG     <
>     WCI    - WIND CHILL INDEX                            <
>     VSB    - VISIBILITY IN MILES                         <
>     HX     - HEAT INDEX                                  <
>     TC     - TEMPERATURE IN CELSIUS                      <
>     VRB    - VARIABLE WIND DIRECTION                     <
>                                                          <
>>>>>>>>>>>>>>>>>>>>>>>>>>>> KEY <<<<<<<<<<<<<<<<<<<<<<<<<<<





USA.gov is the U.S. government's official web portal to all federal, state and local government web resources and services.